| time (UTC) | temp C | wind direction | speed KPH | gust KPH | rain 1hr cm | rain 24hr cm | rain mn cm | humidity % | barometer mb |
| 20260901110106 | 21 | 182 | 0.0 | 1.6 | 0.00 | 0.94 | 0.00 | 94 | 1012.0 |
| 20260901104604 | 21 | 143 | 0.0 | 4.8 | 0.00 | 1.30 | 0.00 | 94 | 1011.8 |
| 20260901103058 | 21 | 143 | 0.0 | 3.2 | 0.00 | 1.30 | 0.00 | 94 | 1011.8 |
| 20260901101607 | 21 | 143 | 0.0 | 0.0 | 0.00 | 1.30 | 0.00 | 93 | 1011.7 |
| 20260901100109 | 21 | 143 | 0.0 | 0.0 | 0.00 | 1.30 | 0.00 | 93 | 1011.7 |
| 20260901094603 | 22 | 143 | 0.0 | 4.8 | 0.00 | 1.32 | 0.00 | 93 | 1011.6 |
| 20260901093058 | 22 | 143 | 0.0 | 4.8 | 0.00 | 1.32 | 0.00 | 93 | 1011.7 |
| 20260901091559 | 22 | 143 | 0.0 | 4.8 | 0.00 | 1.32 | 0.00 | 92 | 1011.6 |
| 20260901084609 | 21 | 142 | 0.0 | 4.8 | 0.00 | 1.35 | 0.00 | 92 | 1011.4 |
| 20260901083100 | 22 | 142 | 0.0 | 6.4 | 0.00 | 1.35 | 0.00 | 91 | 1011.4 |
| 20260901081605 | 22 | 142 | 0.0 | 4.8 | 0.00 | 1.35 | 0.00 | 90 | 1011.2 |
| 20260901080059 | 22 | 142 | 0.0 | 6.4 | 0.00 | 1.35 | 0.00 | 90 | 1011.2 |
| 20260901074559 | 22 | 142 | 0.0 | 9.7 | 0.00 | 1.35 | 0.00 | 90 | 1011.2 |
| 20260901073059 | 22 | 139 | 1.6 | 9.7 | 0.00 | 1.35 | 0.00 | 89 | 1011.3 |
| 20260901071559 | 22 | 143 | 3.2 | 8.0 | 0.00 | 1.35 | 0.00 | 89 | 1011.4 |
| 20260901070059 | 22 | 144 | 3.2 | 14.5 | 0.00 | 1.35 | 0.00 | 89 | 1011.2 |
| 20260901064559 | 22 | 198 | 1.6 | 8.0 | 0.00 | 1.42 | 0.00 | 88 | 1011.2 |
| 20260901063102 | 22 | 142 | 1.6 | 14.5 | 0.00 | 1.42 | 0.00 | 88 | 1011.3 |
| 20260901061613 | 22 | 160 | 1.6 | 9.7 | 0.00 | 1.42 | 0.00 | 87 | 1011.6 |
| 20260901060103 | 22 | 145 | 4.8 | 14.5 | 0.00 | 1.42 | 0.00 | 87 | 1011.6 |
| 20260901054609 | 22 | 155 | 3.2 | 12.9 | 0.00 | 1.57 | 0.00 | 87 | 1011.8 |
| 20260901053122 | 22 | 159 | 4.8 | 14.5 | 0.00 | 1.57 | 0.00 | 87 | 1012.0 |
| 20260901051603 | 22 | 167 | 6.4 | 17.7 | 0.00 | 1.57 | 0.00 | 87 | 1012.1 |
| 20260901050100 | 22 | 152 | 4.8 | 8.0 | 0.00 | 1.57 | 0.00 | 87 | 1012.1 |
| 20260901044559 | 22 | 156 | 3.2 | 12.9 | 0.00 | 1.57 | 0.00 | 87 | 1012.1 |
| 20260901043102 | 22 | 156 | 4.8 | 11.3 | 0.00 | 1.57 | 0.00 | 88 | 1012.0 |
| 20260901041609 | 22 | 158 | 0.0 | 9.7 | 0.00 | 1.57 | 0.00 | 89 | 1012.1 |
| 20260901040121 | 22 | 151 | 3.2 | 9.7 | 0.00 | 1.57 | 0.00 | 88 | 1012.2 |
| 20260901040002 | 22 | 151 | 1.6 | 9.7 | 0.00 | 1.57 | 0.00 | 88 | 1012.1 |
| 20260901034600 | 22 | 164 | 1.6 | 11.3 | 0.00 | 1.57 | 1.57 | 88 | 1012.2 |
| 20260901033115 | 22 | 176 | 1.6 | 16.1 | 0.00 | 1.57 | 1.57 | 88 | 1012.3 |
| 20260901031612 | 22 | 157 | 4.8 | 11.3 | 0.00 | 1.57 | 1.57 | 89 | 1012.6 |
| 20260901024601 | 22 | 151 | 1.6 | 9.7 | 0.00 | 1.57 | 1.57 | 91 | 1012.7 |
| 20260901023101 | 22 | 165 | 1.6 | 11.3 | 0.00 | 1.57 | 1.57 | 92 | 1012.7 |
| 20260901021600 | 22 | 169 | 0.0 | 3.2 | 0.00 | 1.57 | 1.57 | 92 | 1012.6 |
| 20260901014601 | 22 | 139 | 0.0 | 6.4 | 0.00 | 1.57 | 1.57 | 93 | 1012.4 |
| 20260901013107 | 22 | 92 | 0.0 | 3.2 | 0.00 | 1.57 | 1.57 | 94 | 1012.4 |
| 20260901011602 | 22 | 191 | 0.0 | 4.8 | 0.00 | 1.57 | 1.57 | 94 | 1012.4 |
| 20260901010101 | 22 | 121 | 0.0 | 11.3 | 0.00 | 1.57 | 1.57 | 94 | 1012.4 |
| 20260901004601 | 22 | 97 | 0.0 | 4.8 | 0.00 | 1.68 | 1.57 | 95 | 1012.3 |
| 20260901003105 | 22 | 49 | 0.0 | 6.4 | 0.00 | 1.68 | 1.57 | 95 | 1012.3 |
| 20260901001500 | 22 | 120 | 0.0 | 3.2 | 0.00 | 1.68 | 1.57 | 95 | 1012.6 |
| 20260901000002 | 22 | 120 | 0.0 | 3.2 | 0.00 | 1.68 | 1.57 | 94 | 1012.7 |
| 20260831234500 | 22 | 120 | 0.0 | 4.8 | 0.00 | 1.78 | 1.57 | 94 | 1012.8 |
| 20260831233000 | 22 | 120 | 0.0 | 3.2 | 0.00 | 1.78 | 1.57 | 95 | 1013.1 |
| 20260831231501 | 22 | 120 | 0.0 | 3.2 | 0.00 | 1.78 | 1.57 | 95 | 1013.2 |
| 20260831230000 | 22 | 120 | 0.0 | 1.6 | 0.00 | 1.78 | 1.57 | 95 | 1013.2 |
| 20260831224501 | 22 | 160 | 0.0 | 4.8 | 0.00 | 1.85 | 1.57 | 95 | 1013.0 |
| 20260831223001 | 22 | 126 | 0.0 | 1.6 | 0.00 | 1.85 | 1.57 | 95 | 1013.3 |
| 20260831221504 | 22 | 126 | 0.0 | 6.4 | 0.00 | 1.85 | 1.57 | 95 | 1013.0 |
| 20260831220001 | 22 | 126 | 1.6 | 8.0 | 0.00 | 1.85 | 1.57 | 94 | 1013.4 |
| 20260831214501 | 22 | 77 | 0.0 | 0.0 | 0.00 | 1.88 | 1.57 | 94 | 1013.3 |
| 20260831213003 | 22 | 77 | 0.0 | 0.0 | 0.00 | 1.88 | 1.57 | 94 | 1013.2 |
| 20260831211502 | 22 | 77 | 0.0 | 4.8 | 0.00 | 1.88 | 1.57 | 94 | 1013.4 |
| 20260831210003 | 23 | 77 | 0.0 | 8.0 | 0.00 | 1.88 | 1.57 | 95 | 1013.4 |
| 20260831204502 | 23 | 101 | 0.0 | 6.4 | 0.00 | 1.96 | 1.57 | 96 | 1013.2 |
| 20260831203002 | 22 | 150 | 1.6 | 4.8 | 0.00 | 1.96 | 1.57 | 96 | 1012.9 |
| 20260831201502 | 22 | 150 | 0.0 | 3.2 | 0.00 | 1.96 | 1.57 | 96 | 1013.4 |
| 20260831200002 | 22 | 150 | 0.0 | 3.2 | 0.03 | 1.96 | 1.57 | 96 | 1013.6 |
| 20260831194502 | 22 | 150 | 0.0 | 1.6 | 0.03 | 2.16 | 1.57 | 96 | 1014.0 |
| 20260831193001 | 22 | 150 | 0.0 | 1.6 | 0.05 | 2.16 | 1.57 | 95 | 1013.9 |
| 20260831191502 | 22 | 150 | 0.0 | 8.0 | 0.08 | 2.16 | 1.57 | 96 | 1014.0 |
| 20260831190002 | 22 | 152 | 4.8 | 11.3 | 0.05 | 2.13 | 1.55 | 95 | 1014.1 |
| 20260831184502 | 22 | 158 | 0.0 | 0.0 | 0.05 | 2.36 | 1.55 | 95 | 1015.1 |
| 20260831183002 | 22 | 158 | 0.0 | 0.0 | 0.03 | 2.34 | 1.52 | 95 | 1015.5 |
| 20260831181502 | 22 | 158 | 0.0 | 3.2 | 0.00 | 2.31 | 1.50 | 94 | 1015.6 |
| 20260831180002 | 22 | 158 | 0.0 | 3.2 | 0.03 | 2.31 | 1.50 | 95 | 1015.6 |
| 20260831174502 | 23 | 158 | 0.0 | 0.0 | 0.03 | 2.44 | 1.50 | 96 | 1015.7 |
| 20260831173002 | 22 | 158 | 0.0 | 0.0 | 0.05 | 2.44 | 1.50 | 96 | 1015.3 |
| 20260831171504 | 21 | 158 | 0.0 | 0.0 | 0.05 | 2.44 | 1.50 | 96 | 1015.4 |
| 20260831170003 | 21 | 158 | 0.0 | 0.0 | 0.08 | 2.41 | 1.45 | 96 | 1015.9 |
| 20260831164502 | 21 | 158 | 0.0 | 0.0 | 0.10 | 2.82 | 1.45 | 96 | 1016.1 |
| 20260831163002 | 21 | 158 | 0.0 | 0.0 | 0.08 | 2.79 | 1.42 | 96 | 1016.2 |
| 20260831161502 | 21 | 158 | 0.0 | 3.2 | 0.20 | 2.79 | 1.42 | 96 | 1016.6 |
| 20260831160004 | 21 | 158 | 0.0 | 0.0 | 0.56 | 2.74 | 1.40 | 96 | 1016.8 |
| 20260831154502 | 21 | 158 | 0.0 | 0.0 | 0.56 | 3.20 | 1.37 | 96 | 1016.7 |
| 20260831153005 | 21 | 158 | 0.0 | 0.0 | 0.58 | 3.20 | 1.37 | 95 | 1016.2 |
| 20260831151507 | 22 | 158 | 1.6 | 6.4 | 0.43 | 3.05 | 1.22 | 95 | 1015.8 |
| 20260831150003 | 22 | 159 | 0.0 | 0.0 | 0.05 | 2.67 | 0.84 | 95 | 1015.6 |
| 20260831144509 | 23 | 159 | 0.0 | 0.0 | 0.00 | 2.72 | 0.79 | 95 | 1015.4 |
| 20260831143003 | 22 | 159 | 0.0 | 3.2 | 0.00 | 2.72 | 0.79 | 96 | 1015.1 |
| 20260831141507 | 22 | 160 | 0.0 | 4.8 | 0.00 | 2.72 | 0.79 | 96 | 1015.0 |
| 20260831140003 | 22 | 160 | 3.2 | 8.0 | 0.00 | 2.72 | 0.79 | 97 | 1015.1 |
| 20260831134503 | 22 | 176 | 0.0 | 6.4 | 0.00 | 2.77 | 0.79 | 97 | 1015.0 |
| 20260831133003 | 21 | 176 | 0.0 | 3.2 | 0.00 | 2.77 | 0.79 | 97 | 1014.6 |
| 20260831131505 | 21 | 176 | 0.0 | 1.6 | 0.00 | 2.77 | 0.79 | 97 | 1014.5 |
| 20260831130004 | 21 | 176 | 0.0 | 0.0 | 0.03 | 2.77 | 0.79 | 97 | 1014.7 |
| 20260831124503 | 20 | 176 | 0.0 | 1.6 | 0.05 | 3.02 | 0.79 | 97 | 1014.7 |
| 20260831123003 | 20 | 176 | 0.0 | 1.6 | 0.13 | 3.02 | 0.79 | 97 | 1014.8 |
| 20260831121507 | 20 | 176 | 0.0 | 3.2 | 0.13 | 3.02 | 0.79 | 97 | 1014.4 |
| 20260831120003 | 20 | 176 | 0.0 | 6.4 | 0.13 | 3.00 | 0.76 | 97 | 1014.4 |
| 20260831114503 | 20 | 164 | 0.0 | 8.0 | 0.25 | 3.02 | 0.71 | 97 | 1015.1 |
| 20260831113004 | 20 | 164 | 0.0 | 0.0 | 0.30 | 2.92 | 0.66 | 97 | 1015.4 |
| 20260831111511 | 20 | 164 | 0.0 | 0.0 | 0.38 | 2.92 | 0.66 | 97 | 1015.4 |